Location: Newark
(25.0000°N, 73.5000°E)
Time: 10:57:18
(UTC+00:00)

Altair - All Passes

Search period start: 01 March 2021 00:00
Search period end: 11 March 2021 00:00
Orbit: 1501 x 1682 km, 47.2° (Epoch: 28 February)

Date Brightness Start Highest point End Pass type
(mag) Time Alt. Az. Time Alt. Az. Time Alt. Az.
01 Mar - 11:38:34 10° SSW 11:46:47 38° SE 11:55:03 10° ENE daylight
01 Mar - 13:42:11 10° WSW 13:51:08 57° NW 14:00:19 10° NE visible
01 Mar - 15:50:56 10° WNW 15:57:44 22° NNW 16:04:42 10° NNE visible
01 Mar - 17:59:38 10° NNW 18:06:09 20° N 18:12:49 10° NE visible
01 Mar - 20:04:14 10° NW 20:13:25 44° NE 20:22:50 10° ESE night (unlit)
01 Mar - 22:08:49 10° NW 22:18:26 58° SW 22:28:16 10° SSE visible
02 Mar - 11:13:45 10° S 11:21:42 34° SE 11:29:39 10° ENE daylight
02 Mar - 13:16:54 10° WSW 13:25:56 62° NW 13:35:10 10° NE visible
02 Mar - 15:25:22 10° WNW 15:32:20 23° NNW 15:39:28 10° NNE visible
02 Mar - 17:34:21 10° NNW 17:40:42 19° N 17:47:10 10° NE visible
02 Mar - 19:39:07 10° NW 19:48:06 41° NNE 19:57:22 10° E night (unlit)
02 Mar - 21:43:34 10° NW 21:53:15 64° SW 22:03:13 10° SSE visible
02 Mar - 23:53:55 10° WSW 23:57:09 12° WSW 00:00:25 10° SW visible
03 Mar - 10:48:59 10° S 10:56:37 30° SE 11:04:14 10° ENE daylight
03 Mar - 12:51:39 10° WSW 13:00:44 68° NW 13:10:01 10° NE daylight
03 Mar - 14:59:49 10° WNW 15:06:56 24° NNW 15:14:15 10° NNE visible
03 Mar - 17:09:04 10° NW 17:15:14 19° N 17:21:33 10° NE visible
03 Mar - 19:14:00 10° NW 19:22:48 38° NNE 19:31:51 10° E night (unlit)
03 Mar - 21:18:20 10° NW 21:28:04 70° SW 21:38:07 10° SE visible
03 Mar - 23:27:24 10° W 23:32:01 14° WSW 23:36:42 10° SSW visible
04 Mar - 10:24:16 10° S 10:31:31 27° SE 10:38:45 10° ENE daylight
04 Mar - 12:26:25 10° SW 12:35:33 74° NW 12:44:51 10° NE daylight
04 Mar - 14:34:17 10° WNW 14:41:34 25° NNW 14:49:03 10° NNE visible
04 Mar - 16:43:44 10° NW 16:49:47 18° N 16:55:57 10° NE visible
04 Mar - 18:48:53 10° NNW 18:57:28 35° NNE 19:06:19 10° E visible
04 Mar - 20:53:07 10° NW 21:02:54 77° SW 21:12:58 10° SE visible
04 Mar - 23:01:18 10° W 23:06:53 16° SW 23:12:34 10° SSW visible
05 Mar - 09:59:38 10° S 10:06:26 23° SE 10:13:12 10° ENE daylight
05 Mar - 12:01:13 10° SW 12:10:23 80° NW 12:19:41 10° NE daylight
05 Mar - 14:08:45 10° WNW 14:16:13 27° NNW 14:23:52 10° NNE visible
05 Mar - 16:18:23 10° NW 16:24:19 18° N 16:30:22 10° NE visible
05 Mar - 18:23:46 10° NNW 18:32:09 33° NNE 18:40:45 10° E visible
05 Mar - 20:27:56 10° NW 20:37:42 83° SW 20:47:47 10° SE night (unlit)
05 Mar - 22:35:26 10° W 22:41:45 19° SW 22:48:12 10° SSW visible
06 Mar - 09:35:05 10° S 09:41:21 20° SE 09:47:35 10° E daylight
06 Mar - 11:36:03 10° SW 11:45:14 87° NW 11:54:31 10° NE daylight
06 Mar - 13:43:14 10° W 13:50:52 29° NNW 13:58:41 10° NNE visible
06 Mar - 15:52:59 10° NW 15:58:51 18° N 16:04:50 10° NE visible
06 Mar - 17:58:38 10° NNW 18:06:48 31° NNE 18:15:10 10° E visible
06 Mar - 20:02:45 10° NW 20:12:31 90° ENE 20:22:35 10° SE night (unlit)
06 Mar - 22:09:42 10° W 22:16:37 22° SW 22:23:42 10° S visible
07 Mar - 09:10:38 10° SSE 09:16:16 18° SE 09:21:51 10° E daylight
07 Mar - 11:10:54 10° SW 11:20:05 85° SE 11:29:20 10° NE daylight
07 Mar - 13:17:44 10° W 13:25:33 31° NNW 13:33:32 10° NNE visible
07 Mar - 15:27:34 10° NW 15:33:23 18° N 15:39:20 10° NE visible
07 Mar - 17:33:31 10° NNW 17:41:27 29° NNE 17:49:34 10° E visible
07 Mar - 19:37:35 10° NW 19:47:18 83° NE 19:57:22 10° SE night (unlit)
07 Mar - 21:44:04 10° WNW 21:51:29 25° SW 21:59:04 10° S night (unlit)
08 Mar - 08:46:22 10° SSE 08:51:10 15° SE 08:55:57 10° E daylight
08 Mar - 10:45:46 10° SW 10:54:56 78° SE 11:04:08 10° NE daylight
08 Mar - 12:52:15 10° W 13:00:15 33° NNW 13:08:23 10° NNE daylight
08 Mar - 15:02:07 10° NW 15:07:56 18° N 15:13:52 10° NE visible
08 Mar - 17:08:24 10° NNW 17:16:04 27° NNE 17:23:58 10° ENE visible
08 Mar - 19:12:26 10° NW 19:22:06 77° NE 19:32:06 10° SE night (unlit)
08 Mar - 21:18:32 10° WNW 21:26:21 28° SW 21:34:23 10° S night (unlit)
09 Mar - 08:22:22 10° SSE 08:26:05 13° SE 08:29:47 10° E daylight
09 Mar - 10:20:41 10° SW 10:29:49 71° SE 10:38:56 10° NE daylight
09 Mar - 12:26:47 10° W 12:34:57 35° NNW 12:43:15 10° NNE daylight
09 Mar - 14:36:38 10° NW 14:42:29 18° N 14:48:27 10° NE visible
09 Mar - 16:43:16 10° NNW 16:50:42 25° NNE 16:58:20 10° ENE visible
09 Mar - 18:47:18 10° NW 18:56:53 71° NE 19:06:48 10° SE visible
09 Mar - 20:53:03 10° WNW 21:01:13 31° SW 21:09:37 10° S night (unlit)
10 Mar - 07:59:03 10° SE 08:01:00 11° ESE 08:02:55 10° ESE daylight
10 Mar - 09:55:37 10° SSW 10:04:41 64° SE 10:13:43 10° NE daylight
10 Mar - 12:01:21 10° W 12:09:40 38° NNW 12:18:07 10° NE daylight
10 Mar - 14:11:08 10° NW 14:17:02 18° N 14:23:03 10° NNE visible
10 Mar - 16:18:07 10° NNW 16:25:19 24° NNE 16:32:42 10° ENE visible
10 Mar - 18:22:10 10° NW 18:31:39 65° NE 18:41:29 10° ESE visible
10 Mar - 20:27:38 10° WNW 20:36:05 35° SW 20:44:47 10° S night (unlit)
